Time,TemperatureF,DewpointF,PressureIn,WindDirection,WindDirectionDegrees,WindSpeedMPH,WindSpeedGustMPH,Humidity,HourlyPrecipIn,Conditions,Clouds,dailyrainin,SoftwareType,DateUTC
2013-09-14 00:00:00,69.8,60.0,30.17,ESE,112,1.0,5.0,71,0.00,,,-99.99,WeatherLink 6.0.3,2013-09-14 04:00:00,
2013-09-14 00:01:00,60.6,53.7,29.86,NNE,22,0.0,0.0,78,0.00,,,0.00,Wunderground v.1.15,2013-09-14 04:01:00,
2013-09-14 00:02:00,60.5,53.3,29.86,NNE,22,0.0,0.0,77,0.00,,,0.00,Wunderground v.1.15,2013-09-14 04:02:00,
2013-09-14 00:03:00,60.5,53.3,29.86,NNE,22,0.0,0.0,77,0.00,,,0.00,Wunderground v.1.15,2013-09-14 04:03:00,
2013-09-14 00:05:00,60.4,53.5,29.86,NNE,22,0.0,0.0,78,0.00,,,0.00,Wunderground v.1.15,2013-09-14 04:05:00,
2013-09-14 00:10:00,60.3,53.1,29.86,NNE,22,0.0,0.0,77,0.00,,,0.00,Wunderground v.1.15,2013-09-14 04:10:00,
2013-09-14 00:16:00,60.2,53.3,29.86,NNE,22,0.0,0.0,78,0.00,,,0.00,Wunderground v.1.15,2013-09-14 04:16:00,
2013-09-14 00:21:00,60.1,53.6,29.86,NNE,22,0.0,0.0,79,0.00,,,0.00,Wunderground v.1.15,2013-09-14 04:21:00,
2013-09-14 00:26:00,60.0,53.8,29.87,NNE,22,0.0,0.0,80,0.00,,,0.00,Wunderground v.1.15,2013-09-14 04:26:00,
2013-09-14 00:30:00,71.1,60.4,30.17,ESE,112,1.0,4.0,69,0.00,,,-99.99,WeatherLink 6.0.3,2013-09-14 04:30:00,
2013-09-14 00:31:00,59.8,54.0,29.87,NNE,22,0.0,0.0,81,0.00,,,0.00,Wunderground v.1.15,2013-09-14 04:31:00,
2013-09-14 00:37:00,59.6,53.8,29.87,NNE,22,0.0,0.0,81,0.00,,,0.00,Wunderground v.1.15,2013-09-14 04:37:00,
2013-09-14 00:43:00,59.4,53.6,29.87,NNE,22,0.0,0.0,81,0.00,,,0.00,Wunderground v.1.15,2013-09-14 04:43:00,
2013-09-14 00:48:00,59.3,53.8,29.87,NNE,22,0.0,0.0,82,0.00,,,0.00,Wunderground v.1.15,2013-09-14 04:48:00,
2013-09-14 00:54:00,59.1,53.6,29.87,NNE,22,0.0,0.0,82,0.00,,,0.00,Wunderground v.1.15,2013-09-14 04:54:00,
2013-09-14 01:00:00,59.0,53.5,29.87,NNE,22,0.0,0.0,82,0.00,,,0.00,Wunderground v.1.15,2013-09-14 05:00:00,
2013-09-14 01:05:00,59.0,54.2,29.87,NNE,22,0.0,0.0,84,0.00,,,0.00,Wunderground v.1.15,2013-09-14 05:05:00,
2013-09-14 01:10:00,59.0,53.8,29.88,NNE,22,0.0,0.0,83,0.00,,,0.00,Wunderground v.1.15,2013-09-14 05:10:00,
2013-09-14 01:16:00,59.0,53.8,29.88,NNE,22,0.0,0.0,83,0.00,,,0.00,Wunderground v.1.15,2013-09-14 05:16:00,
2013-09-14 01:21:00,59.0,53.5,29.88,NNE,22,0.0,0.0,82,0.00,,,0.00,Wunderground v.1.15,2013-09-14 05:21:00,
2013-09-14 01:27:00,59.0,53.2,29.88,NNE,22,0.0,0.0,81,0.00,,,0.00,Wunderground v.1.15,2013-09-14 05:27:00,
2013-09-14 01:30:00,74.3,61.3,30.17,ESE,112,1.0,5.0,64,0.00,,,-99.99,WeatherLink 6.0.3,2013-09-14 05:30:00,
2013-09-14 01:33:00,59.0,53.5,29.87,NNE,22,0.0,0.0,82,0.00,,,0.00,Wunderground v.1.15,2013-09-14 05:33:00,
2013-09-14 01:38:00,58.9,53.4,29.87,NNE,22,0.0,0.0,82,0.00,,,0.00,Wunderground v.1.15,2013-09-14 05:38:00,
2013-09-14 01:44:00,58.8,53.3,29.87,NNE,22,0.0,0.0,82,0.00,,,0.00,Wunderground v.1.15,2013-09-14 05:44:00,
2013-09-14 01:49:00,58.6,53.1,29.87,NNE,22,0.0,0.0,82,0.00,,,0.00,Wunderground v.1.15,2013-09-14 05:49:00,
2013-09-14 01:55:00,58.4,52.9,29.88,NNE,22,0.0,0.0,82,0.00,,,0.00,Wunderground v.1.15,2013-09-14 05:55:00,
2013-09-14 02:00:00,58.2,53.1,29.88,NNE,22,0.0,0.0,83,0.00,,,0.00,Wunderground v.1.15,2013-09-14 06:00:00,
2013-09-14 02:05:00,58.0,52.9,29.88,NNE,22,0.0,0.0,83,0.00,,,0.00,Wunderground v.1.15,2013-09-14 06:05:00,
2013-09-14 02:10:00,57.9,52.8,29.88,NNE,22,0.0,0.0,83,0.00,,,0.00,Wunderground v.1.15,2013-09-14 06:10:00,
2013-09-14 02:15:00,57.7,52.9,29.88,NNE,22,0.0,0.0,84,0.00,,,0.00,Wunderground v.1.15,2013-09-14 06:15:00,
2013-09-14 02:20:00,57.5,52.7,29.88,NNE,22,0.0,0.0,84,0.00,,,0.00,Wunderground v.1.15,2013-09-14 06:20:00,
2013-09-14 02:25:00,57.4,52.9,29.88,NNE,22,0.0,0.0,85,0.00,,,0.00,Wunderground v.1.15,2013-09-14 06:25:00,
2013-09-14 02:30:00,57.2,52.7,29.88,NNE,22,0.0,0.0,85,0.00,,,0.00,Wunderground v.1.15,2013-09-14 06:30:00,
2013-09-14 02:35:00,57.1,53.0,29.89,NNE,22,0.0,0.0,86,0.00,,,0.00,Wunderground v.1.15,2013-09-14 06:35:00,
2013-09-14 02:40:00,57.0,52.9,29.88,NNE,22,0.0,0.0,86,0.00,,,0.00,Wunderground v.1.15,2013-09-14 06:40:00,
2013-09-14 02:45:00,57.0,52.9,29.89,NNE,22,0.0,0.0,86,0.00,,,0.00,Wunderground v.1.15,2013-09-14 06:45:00,
2013-09-14 02:50:00,56.9,52.8,29.88,NNE,22,0.0,0.0,86,0.00,,,0.00,Wunderground v.1.15,2013-09-14 06:50:00,
2013-09-14 02:55:00,56.8,52.7,29.88,NNE,22,0.0,0.0,86,0.00,,,0.00,Wunderground v.1.15,2013-09-14 06:55:00,
2013-09-14 03:00:00,56.6,52.8,29.88,NNE,22,0.0,0.0,87,0.00,,,0.00,Wunderground v.1.15,2013-09-14 07:00:00,
2013-09-14 03:05:00,56.6,52.8,29.88,NNE,22,0.0,0.0,87,0.00,,,0.00,Wunderground v.1.15,2013-09-14 07:05:00,
2013-09-14 03:10:00,56.6,52.5,29.88,NNE,22,0.0,0.0,86,0.00,,,0.00,Wunderground v.1.15,2013-09-14 07:10:00,
2013-09-14 03:15:00,56.5,52.4,29.88,NNE,22,0.0,0.0,86,0.00,,,0.00,Wunderground v.1.15,2013-09-14 07:15:00,
2013-09-14 03:20:00,56.4,52.3,29.88,NNE,22,0.0,0.0,86,0.00,,,0.00,Wunderground v.1.15,2013-09-14 07:20:00,
2013-09-14 03:25:00,56.4,52.3,29.88,NNE,22,0.0,0.0,86,0.00,,,0.00,Wunderground v.1.15,2013-09-14 07:25:00,
2013-09-14 03:30:00,77.4,63.8,30.13,ESE,112,2.0,8.0,63,0.00,,,-99.99,WeatherLink 6.0.3,2013-09-14 07:30:00,
2013-09-14 03:31:00,56.3,52.5,29.88,NNE,22,0.0,0.0,87,0.00,,,0.00,Wunderground v.1.15,2013-09-14 07:31:00,
2013-09-14 03:36:00,56.2,52.4,29.89,NNE,22,0.0,0.0,87,0.00,,,0.00,Wunderground v.1.15,2013-09-14 07:36:00,
2013-09-14 03:41:00,56.1,52.3,29.89,NNE,22,0.0,0.0,87,0.00,,,0.00,Wunderground v.1.15,2013-09-14 07:41:00,
2013-09-14 03:46:00,55.8,52.0,29.89,NNE,22,0.0,0.0,87,0.00,,,0.00,Wunderground v.1.15,2013-09-14 07:46:00,
2013-09-14 03:51:00,55.4,52.2,29.88,NNE,22,0.0,0.0,89,0.00,,,0.00,Wunderground v.1.15,2013-09-14 07:51:00,
2013-09-14 03:56:00,55.1,51.9,29.89,NNE,22,0.0,0.0,89,0.00,,,0.00,Wunderground v.1.15,2013-09-14 07:56:00,
2013-09-14 04:00:00,76.5,64.7,30.12,ESE,112,1.0,5.0,67,0.00,,,-99.99,WeatherLink 6.0.3,2013-09-14 08:00:00,
2013-09-14 04:01:00,54.9,51.7,29.89,NNE,22,0.0,0.0,89,0.00,,,0.00,Wunderground v.1.15,2013-09-14 08:01:00,
2013-09-14 04:06:00,54.6,51.7,29.89,NNE,22,0.0,0.0,90,0.00,,,0.00,Wunderground v.1.15,2013-09-14 08:06:00,
2013-09-14 04:11:00,54.6,52.0,29.89,NNE,22,0.0,0.0,91,0.00,,,0.00,Wunderground v.1.15,2013-09-14 08:11:00,
2013-09-14 04:16:00,54.8,51.9,29.89,NNE,22,0.0,0.0,90,0.00,,,0.00,Wunderground v.1.15,2013-09-14 08:16:00,
2013-09-14 04:21:00,54.9,52.0,29.88,NNE,22,0.0,0.0,90,0.00,,,0.00,Wunderground v.1.15,2013-09-14 08:21:00,
2013-09-14 04:26:00,55.1,51.9,29.89,NNE,22,0.0,0.0,89,0.00,,,0.00,Wunderground v.1.15,2013-09-14 08:26:00,
2013-09-14 04:30:00,79.4,65.2,30.10,SE,135,1.0,7.0,62,0.00,,,-99.99,WeatherLink 6.0.3,2013-09-14 08:30:00,
2013-09-14 04:31:00,55.2,51.7,29.89,NNE,22,0.0,0.0,88,0.00,,,0.00,Wunderground v.1.15,2013-09-14 08:31:00,
2013-09-14 04:36:00,55.3,51.5,29.89,NNE,22,0.0,0.0,87,0.00,,,0.00,Wunderground v.1.15,2013-09-14 08:36:00,
2013-09-14 04:41:00,55.3,51.5,29.89,NNE,22,0.0,0.0,87,0.00,,,0.00,Wunderground v.1.15,2013-09-14 08:41:00,
2013-09-14 04:46:00,55.3,51.5,29.89,NNE,22,0.0,0.0,87,0.00,,,0.00,Wunderground v.1.15,2013-09-14 08:46:00,
2013-09-14 04:51:00,55.1,51.3,29.90,NNE,22,0.0,0.0,87,0.00,,,0.00,Wunderground v.1.15,2013-09-14 08:51:00,
2013-09-14 04:56:00,54.9,51.1,29.90,NNE,22,0.0,0.0,87,0.00,,,0.00,Wunderground v.1.15,2013-09-14 08:56:00,
2013-09-14 05:00:00,77.1,64.4,30.10,ESE,112,2.0,9.0,65,0.00,,,-99.99,WeatherLink 6.0.3,2013-09-14 09:00:00,
2013-09-14 05:01:00,54.9,51.4,29.90,NNE,22,0.0,0.0,88,0.00,,,0.00,Wunderground v.1.15,2013-09-14 09:01:00,
2013-09-14 05:06:00,54.9,51.7,29.90,NNE,22,0.0,0.0,89,0.00,,,0.00,Wunderground v.1.15,2013-09-14 09:06:00,
2013-09-14 05:11:00,54.8,51.6,29.90,NNE,22,0.0,0.0,89,0.00,,,0.00,Wunderground v.1.15,2013-09-14 09:11:00,
2013-09-14 05:16:00,54.8,51.6,29.90,NNE,22,0.0,0.0,89,0.00,,,0.00,Wunderground v.1.15,2013-09-14 09:16:00,
2013-09-14 05:21:00,54.8,51.3,29.91,NNE,22,0.0,0.0,88,0.00,,,0.00,Wunderground v.1.15,2013-09-14 09:21:00,
2013-09-14 05:26:00,55.1,51.6,29.91,NNE,22,0.0,0.0,88,0.00,,,0.00,Wunderground v.1.15,2013-09-14 09:26:00,
2013-09-14 05:30:00,78.5,65.3,30.08,ESE,112,1.0,9.0,64,0.00,,,-99.99,WeatherLink 6.0.3,2013-09-14 09:30:00,
2013-09-14 05:31:00,55.2,51.4,29.91,NNE,22,0.0,0.0,87,0.00,,,0.00,Wunderground v.1.15,2013-09-14 09:31:00,
2013-09-14 05:36:00,55.3,51.5,29.92,NNE,22,0.0,0.0,87,0.00,,,0.00,Wunderground v.1.15,2013-09-14 09:36:00,
2013-09-14 05:41:00,55.3,51.5,29.92,NNE,22,0.0,0.0,87,0.00,,,0.00,Wunderground v.1.15,2013-09-14 09:41:00,
2013-09-14 05:46:00,55.1,51.3,29.92,NNE,22,0.0,0.0,87,0.00,,,0.00,Wunderground v.1.15,2013-09-14 09:46:00,
2013-09-14 05:51:00,55.0,51.5,29.92,NNE,22,0.0,0.0,88,0.00,,,0.00,Wunderground v.1.15,2013-09-14 09:51:00,
2013-09-14 05:56:00,55.0,51.5,29.92,NNE,22,0.0,1.0,88,0.00,,,0.00,Wunderground v.1.15,2013-09-14 09:56:00,
2013-09-14 06:00:00,78.0,64.8,30.07,SE,135,1.0,6.0,64,0.00,,,-99.99,WeatherLink 6.0.3,2013-09-14 10:00:00,
2013-09-14 06:01:00,55.0,51.8,29.92,NNE,22,0.0,0.0,89,0.00,,,0.00,Wunderground v.1.15,2013-09-14 10:01:00,
2013-09-14 06:06:00,55.0,51.8,29.93,NNE,22,0.0,0.0,89,0.00,,,0.00,Wunderground v.1.15,2013-09-14 10:06:00,
2013-09-14 06:11:00,55.1,51.6,29.93,NNE,22,0.0,0.0,88,0.00,,,0.00,Wunderground v.1.15,2013-09-14 10:11:00,
2013-09-14 06:16:00,55.1,51.6,29.93,NNE,22,0.0,0.0,88,0.00,,,0.00,Wunderground v.1.15,2013-09-14 10:16:00,
2013-09-14 06:21:00,55.0,51.8,29.93,NNE,22,0.0,0.0,89,0.00,,,0.00,Wunderground v.1.15,2013-09-14 10:21:00,
2013-09-14 06:26:00,55.0,51.8,29.94,NNE,22,0.0,0.0,89,0.00,,,0.00,Wunderground v.1.15,2013-09-14 10:26:00,
2013-09-14 06:30:00,77.1,65.3,30.07,ESE,112,1.0,6.0,67,0.00,,,-99.99,WeatherLink 6.0.3,2013-09-14 10:30:00,
2013-09-14 06:31:00,54.9,51.7,29.94,NNE,22,0.0,0.0,89,0.00,,,0.00,Wunderground v.1.15,2013-09-14 10:31:00,
2013-09-14 06:37:00,54.6,51.4,29.95,NNE,22,0.0,0.0,89,0.00,,,0.00,Wunderground v.1.15,2013-09-14 10:37:00,
2013-09-14 06:42:00,54.4,51.2,29.95,NNE,22,0.0,0.0,89,0.00,,,0.00,Wunderground v.1.15,2013-09-14 10:42:00,
2013-09-14 06:47:00,54.3,51.1,29.95,NNE,22,0.0,1.0,89,0.00,,,0.00,Wunderground v.1.15,2013-09-14 10:47:00,
2013-09-14 06:52:00,54.2,51.0,29.95,NNE,22,0.0,0.0,89,0.00,,,0.00,Wunderground v.1.15,2013-09-14 10:52:00,
2013-09-14 06:57:00,54.2,51.0,29.95,NNE,22,0.0,0.0,89,0.00,,,0.00,Wunderground v.1.15,2013-09-14 10:57:00,
2013-09-14 07:00:00,76.4,65.1,30.06,ESE,112,0.0,5.0,68,0.00,,,-99.99,WeatherLink 6.0.3,2013-09-14 11:00:00,
2013-09-14 07:02:00,54.2,51.0,29.95,NNE,22,0.0,0.0,89,0.00,,,0.00,Wunderground v.1.15,2013-09-14 11:02:00,
2013-09-14 07:07:00,54.2,51.0,29.95,NNE,22,0.0,0.0,89,0.00,,,0.00,Wunderground v.1.15,2013-09-14 11:07:00,
2013-09-14 07:12:00,54.2,51.3,29.96,NNE,22,0.0,0.0,90,0.00,,,0.00,Wunderground v.1.15,2013-09-14 11:12:00,
2013-09-14 07:17:00,54.2,51.0,29.96,NNE,22,0.0,0.0,89,0.00,,,0.00,Wunderground v.1.15,2013-09-14 11:17:00,
2013-09-14 07:22:00,54.2,51.3,29.96,NNE,22,0.0,0.0,90,0.00,,,0.00,Wunderground v.1.15,2013-09-14 11:22:00,
2013-09-14 07:27:00,54.2,51.6,29.97,NNE,22,0.0,0.0,91,0.00,,,0.00,Wunderground v.1.15,2013-09-14 11:27:00,
2013-09-14 07:30:00,75.4,65.7,30.07,ESE,112,1.0,6.0,72,0.00,,,-99.99,WeatherLink 6.0.3,2013-09-14 11:30:00,
2013-09-14 07:32:00,54.3,51.4,29.97,NNE,22,0.0,0.0,90,0.00,,,0.00,Wunderground v.1.15,2013-09-14 11:32:00,
2013-09-14 07:37:00,54.3,51.1,29.97,NNE,22,0.0,0.0,89,0.00,,,0.00,Wunderground v.1.15,2013-09-14 11:37:00,
2013-09-14 07:42:00,54.2,51.3,29.98,NNE,22,0.0,0.0,90,0.00,,,0.00,Wunderground v.1.15,2013-09-14 11:42:00,
2013-09-14 07:47:00,54.2,51.3,29.98,NNE,22,0.0,0.0,90,0.00,,,0.00,Wunderground v.1.15,2013-09-14 11:47:00,
2013-09-14 07:52:00,54.4,51.8,29.98,NNE,22,0.0,0.0,91,0.00,,,0.00,Wunderground v.1.15,2013-09-14 11:52:00,
2013-09-14 07:57:00,54.7,51.8,29.98,NNE,22,0.0,0.0,90,0.00,,,0.00,Wunderground v.1.15,2013-09-14 11:57:00,
2013-09-14 08:00:00,74.9,65.3,30.07,SE,135,0.0,3.0,72,0.00,,,-99.99,WeatherLink 6.0.3,2013-09-14 12:00:00,
2013-09-14 08:02:00,55.2,51.7,29.99,NNE,22,0.0,0.0,88,0.00,,,0.00,Wunderground v.1.15,2013-09-14 12:02:00,
2013-09-14 08:07:00,55.7,51.9,29.99,NNE,22,0.0,0.0,87,0.00,,,0.00,Wunderground v.1.15,2013-09-14 12:07:00,
2013-09-14 08:12:00,56.2,51.7,29.99,NNE,22,0.0,1.0,85,0.00,,,0.00,Wunderground v.1.15,2013-09-14 12:12:00,
2013-09-14 08:18:00,56.6,51.8,29.99,NNE,22,0.0,1.0,84,0.00,,,0.00,Wunderground v.1.15,2013-09-14 12:18:00,
2013-09-14 08:23:00,56.9,52.4,29.99,NNE,25,1.0,1.0,85,0.00,,,0.00,Wunderground v.1.15,2013-09-14 12:23:00,
2013-09-14 08:28:00,57.3,52.2,30.00,NNE,25,0.0,1.0,83,0.00,,,0.00,Wunderground v.1.15,2013-09-14 12:28:00,
2013-09-14 08:30:00,72.8,65.9,30.07,SE,135,0.0,1.0,79,0.00,,,-99.99,WeatherLink 6.0.3,2013-09-14 12:30:00,
2013-09-14 08:33:00,57.5,52.4,30.00,NNE,24,0.0,0.0,83,0.00,,,0.00,Wunderground v.1.15,2013-09-14 12:33:00,
2013-09-14 08:38:00,57.8,52.3,30.00,NNE,24,0.0,0.0,82,0.00,,,0.00,Wunderground v.1.15,2013-09-14 12:38:00,
2013-09-14 08:43:00,58.0,52.2,30.00,NNE,24,0.0,0.0,81,0.00,,,0.00,Wunderground v.1.15,2013-09-14 12:43:00,
2013-09-14 08:48:00,58.3,52.5,30.00,NNE,24,0.0,0.0,81,0.00,,,0.00,Wunderground v.1.15,2013-09-14 12:48:00,
2013-09-14 08:53:00,58.5,52.0,30.00,NNE,24,0.0,0.0,79,0.00,,,0.00,Wunderground v.1.15,2013-09-14 12:53:00,
2013-09-14 08:58:00,59.0,52.5,30.00,NNE,24,0.0,0.0,79,0.00,,,0.00,Wunderground v.1.15,2013-09-14 12:58:00,
2013-09-14 09:00:00,71.0,65.6,30.07,North,-999,0.0,0.0,83,0.00,,,-99.99,WeatherLink 6.0.3,2013-09-14 13:00:00,
2013-09-14 09:03:00,59.0,51.8,30.01,NNE,24,0.0,2.0,77,0.00,,,0.00,Wunderground v.1.15,2013-09-14 13:03:00,
2013-09-14 09:08:00,59.1,51.9,30.01,NNE,25,0.0,2.0,77,0.00,,,0.00,Wunderground v.1.15,2013-09-14 13:08:00,
2013-09-14 09:13:00,59.4,51.8,30.01,NNE,22,0.0,2.0,76,0.00,,,0.00,Wunderground v.1.15,2013-09-14 13:13:00,
2013-09-14 09:18:00,59.9,52.3,30.01,NNE,22,0.0,2.0,76,0.00,,,0.00,Wunderground v.1.15,2013-09-14 13:18:00,
2013-09-14 09:23:00,60.6,53.3,30.01,NNE,23,0.0,1.0,77,0.00,,,0.00,Wunderground v.1.15,2013-09-14 13:23:00,
2013-09-14 09:28:00,61.1,53.1,30.02,NNE,22,0.0,3.0,75,0.00,,,0.00,Wunderground v.1.15,2013-09-14 13:28:00,
2013-09-14 09:30:00,69.0,64.6,30.07,North,-999,0.0,0.0,86,0.00,,,-99.99,WeatherLink 6.0.3,2013-09-14 13:30:00,
2013-09-14 09:33:00,62.3,54.6,30.02,East,101,3.0,6.0,76,0.00,,,0.00,Wunderground v.1.15,2013-09-14 13:33:00,
2013-09-14 09:38:00,63.6,53.6,30.01,ESE,117,0.0,6.0,70,0.00,,,0.00,Wunderground v.1.15,2013-09-14 13:38:00,
2013-09-14 09:43:00,64.4,54.0,30.02,ESE,111,4.0,9.0,69,0.00,,,0.00,Wunderground v.1.15,2013-09-14 13:43:00,
2013-09-14 09:48:00,64.0,53.6,30.02,ESE,115,1.0,9.0,69,0.00,,,0.00,Wunderground v.1.15,2013-09-14 13:48:00,
2013-09-14 09:53:00,64.0,54.0,30.02,East,101,5.0,6.0,70,0.00,,,0.00,Wunderground v.1.15,2013-09-14 13:53:00,
2013-09-14 09:58:00,64.4,54.0,30.02,ESE,114,2.0,11.0,69,0.00,,,0.00,Wunderground v.1.15,2013-09-14 13:58:00,
2013-09-14 10:00:00,67.5,63.5,30.08,North,-999,0.0,0.0,87,0.00,,,-99.99,WeatherLink 6.0.3,2013-09-14 14:00:00,
2013-09-14 10:03:00,64.9,54.1,30.02,ESE,107,0.0,3.0,68,0.00,,,0.00,Wunderground v.1.15,2013-09-14 14:03:00,
2013-09-14 10:08:00,65.1,53.9,30.02,SE,140,1.0,7.0,67,0.00,,,0.00,Wunderground v.1.15,2013-09-14 14:08:00,
2013-09-14 10:14:00,65.3,54.1,30.02,ESE,122,1.0,7.0,67,0.00,,,0.00,Wunderground v.1.15,2013-09-14 14:14:00,
2013-09-14 10:19:00,66.2,54.5,30.02,East,96,0.0,7.0,66,0.00,,,0.00,Wunderground v.1.15,2013-09-14 14:19:00,
2013-09-14 10:24:00,67.0,54.8,30.02,ESE,119,5.0,5.0,65,0.00,,,0.00,Wunderground v.1.15,2013-09-14 14:24:00,
2013-09-14 10:29:00,67.2,54.2,30.02,ESE,107,3.0,12.0,63,0.00,,,0.00,Wunderground v.1.15,2013-09-14 14:29:00,
2013-09-14 10:30:00,66.6,63.3,30.08,North,-999,0.0,0.0,89,0.00,,,-99.99,WeatherLink 6.0.3,2013-09-14 14:30:00,
2013-09-14 10:34:00,67.2,54.6,30.02,ESE,113,2.0,7.0,64,0.00,,,0.00,Wunderground v.1.15,2013-09-14 14:34:00,
2013-09-14 10:39:00,66.7,55.0,30.02,SE,136,3.0,9.0,66,0.00,,,0.00,Wunderground v.1.15,2013-09-14 14:39:00,
2013-09-14 10:44:00,66.7,55.0,30.02,ESE,114,1.0,7.0,66,0.00,,,0.00,Wunderground v.1.15,2013-09-14 14:44:00,
2013-09-14 10:49:00,67.2,54.6,30.02,ESE,121,9.0,9.0,64,0.00,,,0.00,Wunderground v.1.15,2013-09-14 14:49:00,
2013-09-14 10:54:00,67.2,55.0,30.02,ESE,121,3.0,5.0,65,0.00,,,0.00,Wunderground v.1.15,2013-09-14 14:54:00,
2013-09-14 10:59:00,67.9,54.8,30.02,ESE,123,3.0,6.0,63,0.00,,,0.00,Wunderground v.1.15,2013-09-14 14:59:00,
2013-09-14 11:00:00,65.4,62.7,30.09,North,-999,0.0,0.0,91,0.00,,,-99.99,WeatherLink 6.0.3,2013-09-14 15:00:00,
2013-09-14 11:04:00,67.7,54.6,30.02,ESE,119,1.0,5.0,63,0.00,,,0.00,Wunderground v.1.15,2013-09-14 15:04:00,
2013-09-14 11:09:00,68.0,55.8,30.02,ESE,111,0.0,6.0,65,0.00,,,0.00,Wunderground v.1.15,2013-09-14 15:09:00,
2013-09-14 11:14:00,69.2,55.6,30.02,ESE,103,0.0,3.0,62,0.00,,,0.00,Wunderground v.1.15,2013-09-14 15:14:00,
2013-09-14 11:19:00,69.8,55.7,30.02,ESE,104,0.0,8.0,61,0.00,,,0.00,Wunderground v.1.15,2013-09-14 15:19:00,
2013-09-14 11:24:00,70.4,55.8,30.02,NNW,334,3.0,4.0,60,0.00,,,0.00,Wunderground v.1.15,2013-09-14 15:24:00,
2013-09-14 11:29:00,70.3,56.2,30.02,ESE,109,0.0,4.0,61,0.00,,,0.00,Wunderground v.1.15,2013-09-14 15:29:00,
2013-09-14 11:30:00,64.1,62.0,30.08,SE,135,0.0,1.0,93,0.00,,,-99.99,WeatherLink 6.0.3,2013-09-14 15:30:00,
2013-09-14 11:34:00,70.8,55.8,30.02,ESE,112,1.0,4.0,59,0.00,,,0.00,Wunderground v.1.15,2013-09-14 15:34:00,
2013-09-14 11:39:00,70.7,55.7,30.02,NNW,338,2.0,7.0,59,0.00,,,0.00,Wunderground v.1.15,2013-09-14 15:39:00,
2013-09-14 11:44:00,70.5,55.9,30.02,NE,56,0.0,6.0,60,0.00,,,0.00,Wunderground v.1.15,2013-09-14 15:44:00,
2013-09-14 11:49:00,71.3,55.8,30.01,ESE,119,0.0,6.0,58,0.00,,,0.00,Wunderground v.1.15,2013-09-14 15:49:00,
2013-09-14 11:54:00,71.3,56.2,30.01,SE,140,0.0,6.0,59,0.00,,,0.00,Wunderground v.1.15,2013-09-14 15:54:00,
2013-09-14 11:59:00,71.7,56.6,30.01,NE,55,1.0,7.0,59,0.00,,,0.00,Wunderground v.1.15,2013-09-14 15:59:00,
2013-09-14 12:00:00,63.8,62.0,30.08,North,-999,0.0,0.0,94,0.00,,,-99.99,WeatherLink 6.0.3,2013-09-14 16:00:00,
2013-09-14 12:04:00,72.3,56.7,30.01,East,82,0.0,4.0,58,0.00,,,0.00,Wunderground v.1.15,2013-09-14 16:04:00,
2013-09-14 12:09:00,72.7,56.6,30.01,ESE,110,0.0,4.0,57,0.00,,,0.00,Wunderground v.1.15,2013-09-14 16:09:00,
2013-09-14 12:14:00,73.2,57.5,30.01,East,100,5.0,6.0,58,0.00,,,0.00,Wunderground v.1.15,2013-09-14 16:14:00,
2013-09-14 12:19:00,72.5,55.4,30.01,South,191,0.0,6.0,55,0.00,,,0.00,Wunderground v.1.15,2013-09-14 16:19:00,
2013-09-14 12:24:00,71.7,56.6,30.01,SE,132,3.0,6.0,59,0.00,,,0.00,Wunderground v.1.15,2013-09-14 16:24:00,
2013-09-14 12:29:00,72.5,56.9,30.01,ENE,69,1.0,6.0,58,0.00,,,0.00,Wunderground v.1.15,2013-09-14 16:29:00,
2013-09-14 12:30:00,63.1,61.3,30.08,North,-999,0.0,0.0,94,0.00,,,-99.99,WeatherLink 6.0.3,2013-09-14 16:30:00,
2013-09-14 12:34:00,73.9,57.2,30.01,ENE,68,1.0,6.0,56,0.00,,,0.00,Wunderground v.1.15,2013-09-14 16:34:00,
2013-09-14 12:40:00,73.4,55.7,30.01,NE,38,0.0,1.0,54,0.00,,,0.00,Wunderground v.1.15,2013-09-14 16:40:00,
2013-09-14 12:45:00,72.9,56.3,30.01,NNW,338,0.0,2.0,56,0.00,,,0.00,Wunderground v.1.15,2013-09-14 16:45:00,
2013-09-14 12:50:00,72.4,55.3,30.01,ESE,109,2.0,4.0,55,0.00,,,0.00,Wunderground v.1.15,2013-09-14 16:50:00,
2013-09-14 12:55:00,73.2,57.1,30.01,East,101,4.0,5.0,57,0.00,,,0.00,Wunderground v.1.15,2013-09-14 16:55:00,
2013-09-14 13:00:00,73.6,56.9,30.00,ESE,120,3.0,5.0,56,0.00,,,0.00,Wunderground v.1.15,2013-09-14 17:00:00,
2013-09-14 13:05:00,72.8,55.2,30.00,ESE,117,2.0,7.0,54,0.00,,,0.00,Wunderground v.1.15,2013-09-14 17:05:00,
2013-09-14 13:10:00,73.4,56.2,30.00,ESE,103,1.0,3.0,55,0.00,,,0.00,Wunderground v.1.15,2013-09-14 17:10:00,
2013-09-14 13:15:00,73.5,55.8,30.00,ESE,115,4.0,11.0,54,0.00,,,0.00,Wunderground v.1.15,2013-09-14 17:15:00,
2013-09-14 13:20:00,73.7,56.0,30.00,ESE,117,1.0,3.0,54,0.00,,,0.00,Wunderground v.1.15,2013-09-14 17:20:00,
2013-09-14 13:25:00,74.1,55.9,30.00,ESE,113,4.0,9.0,53,0.00,,,0.00,Wunderground v.1.15,2013-09-14 17:25:00,
2013-09-14 13:30:00,74.2,55.4,30.00,ESE,115,0.0,2.0,52,0.00,,,0.00,Wunderground v.1.15,2013-09-14 17:30:00,
2013-09-14 13:35:00,75.3,57.0,30.00,ESE,112,2.0,5.0,53,0.00,,,0.00,Wunderground v.1.15,2013-09-14 17:35:00,
2013-09-14 13:40:00,76.3,56.3,30.00,ENE,78,2.0,2.0,50,0.00,,,0.00,Wunderground v.1.15,2013-09-14 17:40:00,
2013-09-14 13:45:00,76.4,56.9,30.00,ESE,113,4.0,4.0,51,0.00,,,0.00,Wunderground v.1.15,2013-09-14 17:45:00,
2013-09-14 13:50:00,75.9,55.9,29.99,ESE,113,7.0,10.0,50,0.00,,,0.00,Wunderground v.1.15,2013-09-14 17:50:00,
2013-09-14 13:55:00,74.7,55.9,29.99,South,190,0.0,10.0,52,0.00,,,0.00,Wunderground v.1.15,2013-09-14 17:55:00,
2013-09-14 14:00:00,75.1,56.3,29.99,ESE,112,1.0,3.0,52,0.00,,,0.00,Wunderground v.1.15,2013-09-14 18:00:00,
2013-09-14 14:05:00,76.5,56.5,29.99,NW,314,0.0,3.0,50,0.00,,,0.00,Wunderground v.1.15,2013-09-14 18:05:00,
2013-09-14 14:10:00,76.3,56.3,29.99,West,278,2.0,2.0,50,0.00,,,0.00,Wunderground v.1.15,2013-09-14 18:10:00,
2013-09-14 14:15:00,75.8,57.4,29.99,WNW,286,0.0,4.0,53,0.00,,,0.00,Wunderground v.1.15,2013-09-14 18:15:00,
2013-09-14 14:20:00,76.0,57.1,29.99,East,98,2.0,2.0,52,0.00,,,0.00,Wunderground v.1.15,2013-09-14 18:20:00,
2013-09-14 14:25:00,77.5,57.9,29.98,ESE,107,0.0,5.0,51,0.00,,,0.00,Wunderground v.1.15,2013-09-14 18:25:00,
2013-09-14 14:30:00,78.2,56.9,29.98,SSW,213,1.0,1.0,48,0.00,,,0.00,Wunderground v.1.15,2013-09-14 18:30:00,
2013-09-14 14:35:00,77.0,56.9,29.98,ESE,110,4.0,4.0,50,0.00,,,0.00,Wunderground v.1.15,2013-09-14 18:35:00,
2013-09-14 14:41:00,76.7,56.7,29.98,SE,136,0.0,4.0,50,0.00,,,0.00,Wunderground v.1.15,2013-09-14 18:41:00,
2013-09-14 14:46:00,76.6,57.7,29.98,SE,132,2.0,5.0,52,0.00,,,0.00,Wunderground v.1.15,2013-09-14 18:46:00,
2013-09-14 14:51:00,75.9,57.5,29.98,ESE,119,4.0,4.0,53,0.00,,,0.00,Wunderground v.1.15,2013-09-14 18:51:00,
2013-09-14 14:56:00,76.3,57.4,29.98,SE,129,1.0,6.0,52,0.00,,,0.00,Wunderground v.1.15,2013-09-14 18:56:00,
2013-09-14 15:00:00,61.0,60.1,30.07,North,-999,0.0,0.0,97,0.00,,,-99.99,WeatherLink 6.0.3,2013-09-14 19:00:00,
2013-09-14 15:01:00,76.8,57.8,29.98,East,80,4.0,5.0,52,0.00,,,0.00,Wunderground v.1.15,2013-09-14 19:01:00,
2013-09-14 15:06:00,77.9,58.3,29.98,SE,132,0.0,5.0,51,0.00,,,0.00,Wunderground v.1.15,2013-09-14 19:06:00,
2013-09-14 15:11:00,78.7,59.0,29.97,SSE,163,0.0,1.0,51,0.00,,,0.00,Wunderground v.1.15,2013-09-14 19:11:00,
2013-09-14 15:16:00,79.9,59.0,29.97,SE,130,0.0,5.0,49,0.00,,,0.00,Wunderground v.1.15,2013-09-14 19:16:00,
2013-09-14 15:21:00,80.6,59.7,29.97,ESE,102,0.0,1.0,49,0.00,,,0.00,Wunderground v.1.15,2013-09-14 19:21:00,
2013-09-14 15:26:00,80.6,59.1,29.97,ESE,115,0.0,4.0,48,0.00,,,0.00,Wunderground v.1.15,2013-09-14 19:26:00,
2013-09-14 15:30:00,60.4,59.5,30.08,North,-999,0.0,0.0,97,0.00,,,-99.99,WeatherLink 6.0.3,2013-09-14 19:30:00,
2013-09-14 15:31:00,80.1,58.6,29.97,NNE,33,1.0,1.0,48,0.00,,,0.00,Wunderground v.1.15,2013-09-14 19:31:00,
2013-09-14 15:36:00,79.7,58.8,29.97,ESE,106,3.0,4.0,49,0.00,,,0.00,Wunderground v.1.15,2013-09-14 19:36:00,
2013-09-14 15:41:00,80.5,58.4,29.97,ESE,109,0.0,1.0,47,0.00,,,0.00,Wunderground v.1.15,2013-09-14 19:41:00,
2013-09-14 15:46:00,79.7,58.3,29.97,North,5,0.0,3.0,48,0.00,,,0.00,Wunderground v.1.15,2013-09-14 19:46:00,
2013-09-14 15:51:00,78.4,57.7,29.97,ESE,119,4.0,9.0,49,0.00,,,0.00,Wunderground v.1.15,2013-09-14 19:51:00,
2013-09-14 15:56:00,77.3,58.3,29.97,East,95,5.0,9.0,52,0.00,,,0.00,Wunderground v.1.15,2013-09-14 19:56:00,
2013-09-14 16:00:00,60.4,59.5,30.07,North,-999,0.0,0.0,97,0.00,,,-99.99,WeatherLink 6.0.3,2013-09-14 20:00:00,
2013-09-14 16:01:00,77.6,58.0,29.97,ESE,108,2.0,5.0,51,0.00,,,0.00,Wunderground v.1.15,2013-09-14 20:01:00,
2013-09-14 16:06:00,77.5,57.4,29.97,SE,130,0.0,7.0,50,0.00,,,0.00,Wunderground v.1.15,2013-09-14 20:06:00,
2013-09-14 16:11:00,77.8,57.7,29.97,SE,125,0.0,2.0,50,0.00,,,0.00,Wunderground v.1.15,2013-09-14 20:11:00,
2013-09-14 16:16:00,77.4,57.9,29.97,ESE,105,1.0,5.0,51,0.00,,,0.00,Wunderground v.1.15,2013-09-14 20:16:00,
2013-09-14 16:21:00,77.3,57.8,29.97,ESE,106,0.0,1.0,51,0.00,,,0.00,Wunderground v.1.15,2013-09-14 20:21:00,
2013-09-14 16:26:00,78.2,58.0,29.97,ESE,107,0.0,3.0,50,0.00,,,0.00,Wunderground v.1.15,2013-09-14 20:26:00,
2013-09-14 16:30:00,60.2,59.3,30.07,North,-999,0.0,0.0,97,0.00,,,-99.99,WeatherLink 6.0.3,2013-09-14 20:30:00,
2013-09-14 16:31:00,77.6,58.0,29.97,West,259,0.0,1.0,51,0.00,,,0.00,Wunderground v.1.15,2013-09-14 20:31:00,
2013-09-14 16:36:00,77.5,57.9,29.97,SSE,167,2.0,3.0,51,0.00,,,0.00,Wunderground v.1.15,2013-09-14 20:36:00,
2013-09-14 16:41:00,77.2,57.7,29.97,SE,126,0.0,1.0,51,0.00,,,0.00,Wunderground v.1.15,2013-09-14 20:41:00,
2013-09-14 16:46:00,76.4,57.5,29.97,SE,127,1.0,3.0,52,0.00,,,0.00,Wunderground v.1.15,2013-09-14 20:46:00,
2013-09-14 16:51:00,75.2,58.4,29.98,SE,127,0.0,0.0,56,0.00,,,0.00,Wunderground v.1.15,2013-09-14 20:51:00,
2013-09-14 16:56:00,74.5,57.8,29.98,SE,127,0.0,0.0,56,0.00,,,0.00,Wunderground v.1.15,2013-09-14 20:56:00,
2013-09-14 17:00:00,59.5,58.6,30.07,North,-999,0.0,0.0,97,0.00,,,-99.99,WeatherLink 6.0.3,2013-09-14 21:00:00,
2013-09-14 17:01:00,74.0,57.3,29.98,SE,126,0.0,0.0,56,0.00,,,0.00,Wunderground v.1.15,2013-09-14 21:01:00,
2013-09-14 17:06:00,74.0,57.3,29.98,SE,127,1.0,1.0,56,0.00,,,0.00,Wunderground v.1.15,2013-09-14 21:06:00,
2013-09-14 17:11:00,73.7,57.0,29.98,SE,132,1.0,1.0,56,0.00,,,0.00,Wunderground v.1.15,2013-09-14 21:11:00,
2013-09-14 17:16:00,73.5,57.3,29.98,ESE,123,0.0,5.0,57,0.00,,,0.00,Wunderground v.1.15,2013-09-14 21:16:00,
2013-09-14 17:21:00,73.2,57.1,29.98,ESE,109,0.0,3.0,57,0.00,,,0.00,Wunderground v.1.15,2013-09-14 21:21:00,
2013-09-14 17:26:00,73.2,57.1,29.98,ESE,121,0.0,5.0,57,0.00,,,0.00,Wunderground v.1.15,2013-09-14 21:26:00,
2013-09-14 17:30:00,61.7,61.1,30.06,North,-999,0.0,0.0,98,0.00,,,-99.99,WeatherLink 6.0.3,2013-09-14 21:30:00,
2013-09-14 17:31:00,73.1,57.4,29.98,SSE,150,1.0,4.0,58,0.00,,,0.00,Wunderground v.1.15,2013-09-14 21:31:00,
2013-09-14 17:36:00,72.8,57.6,29.98,ESE,107,2.0,5.0,59,0.00,,,0.00,Wunderground v.1.15,2013-09-14 21:36:00,
2013-09-14 17:41:00,72.9,57.3,29.99,ESE,112,0.0,3.0,58,0.00,,,0.00,Wunderground v.1.15,2013-09-14 21:41:00,
2013-09-14 17:46:00,72.9,56.8,29.99,ESE,112,0.0,3.0,57,0.00,,,0.00,Wunderground v.1.15,2013-09-14 21:46:00,
2013-09-14 17:51:00,72.8,56.7,29.99,ESE,113,0.0,1.0,57,0.00,,,0.00,Wunderground v.1.15,2013-09-14 21:51:00,
2013-09-14 17:56:00,72.6,57.0,29.99,SE,140,1.0,4.0,58,0.00,,,0.00,Wunderground v.1.15,2013-09-14 21:56:00,
2013-09-14 18:00:00,61.4,60.8,30.06,North,-999,0.0,0.0,98,0.00,,,-99.99,WeatherLink 6.0.3,2013-09-14 22:00:00,
2013-09-14 18:02:00,72.3,57.2,29.99,South,173,1.0,1.0,59,0.00,,,0.00,Wunderground v.1.15,2013-09-14 22:02:00,
2013-09-14 18:07:00,72.1,57.4,29.99,South,178,0.0,2.0,60,0.00,,,0.00,Wunderground v.1.15,2013-09-14 22:07:00,
2013-09-14 18:12:00,71.9,57.3,29.99,South,179,0.0,2.0,60,0.00,,,0.00,Wunderground v.1.15,2013-09-14 22:12:00,
2013-09-14 18:17:00,71.8,57.2,29.99,South,172,0.0,2.0,60,0.00,,,0.00,Wunderground v.1.15,2013-09-14 22:17:00,
2013-09-14 18:22:00,71.8,56.7,29.99,ESE,106,0.0,1.0,59,0.00,,,0.00,Wunderground v.1.15,2013-09-14 22:22:00,
2013-09-14 18:27:00,71.7,57.5,29.99,ESE,106,0.0,1.0,61,0.00,,,0.00,Wunderground v.1.15,2013-09-14 22:27:00,
2013-09-14 18:30:00,60.8,60.2,30.06,North,-999,0.0,0.0,98,0.00,,,-99.99,WeatherLink 6.0.3,2013-09-14 22:30:00,
2013-09-14 18:32:00,71.6,57.9,30.00,ESE,106,0.0,1.0,62,0.00,,,0.00,Wunderground v.1.15,2013-09-14 22:32:00,
2013-09-14 18:37:00,71.3,58.1,30.00,ESE,106,0.0,1.0,63,0.00,,,0.00,Wunderground v.1.15,2013-09-14 22:37:00,
2013-09-14 18:42:00,71.0,58.2,30.00,ESE,106,0.0,0.0,64,0.00,,,0.00,Wunderground v.1.15,2013-09-14 22:42:00,
2013-09-14 18:47:00,70.4,58.1,30.00,ESE,106,0.0,0.0,65,0.00,,,0.00,Wunderground v.1.15,2013-09-14 22:47:00,
2013-09-14 18:49:00,70.2,57.9,30.00,ESE,106,0.0,0.0,65,0.00,,,0.00,Wunderground v.1.15,2013-09-14 22:49:00,
2013-09-14 18:54:00,69.7,58.7,30.00,ESE,106,0.0,0.0,68,0.00,,,0.00,Wunderground v.1.15,2013-09-14 22:54:00,
2013-09-14 18:59:00,69.3,58.7,30.00,ESE,106,0.0,0.0,69,0.00,,,0.00,Wunderground v.1.15,2013-09-14 22:59:00,
2013-09-14 19:00:00,59.9,59.3,30.06,North,-999,0.0,0.0,98,0.00,,,-99.99,WeatherLink 6.0.3,2013-09-14 23:00:00,
2013-09-14 19:04:00,68.9,59.1,30.00,ESE,106,0.0,0.0,71,0.00,,,0.00,Wunderground v.1.15,2013-09-14 23:04:00,
2013-09-14 19:10:00,68.5,59.1,30.00,ESE,106,0.0,0.0,72,0.00,,,0.00,Wunderground v.1.15,2013-09-14 23:10:00,
2013-09-14 19:15:00,68.1,59.1,30.00,ESE,106,0.0,0.0,73,0.00,,,0.00,Wunderground v.1.15,2013-09-14 23:15:00,
2013-09-14 19:20:00,67.7,59.1,30.00,ESE,106,0.0,0.0,74,0.00,,,0.00,Wunderground v.1.15,2013-09-14 23:20:00,
2013-09-14 19:25:00,67.4,58.4,30.00,ESE,106,0.0,0.0,73,0.00,,,0.00,Wunderground v.1.15,2013-09-14 23:25:00,
2013-09-14 19:30:00,67.1,58.9,30.00,ESE,106,0.0,0.0,75,0.00,,,0.00,Wunderground v.1.15,2013-09-14 23:30:00,
2013-09-14 19:35:00,66.8,59.0,30.00,ESE,106,0.0,0.0,76,0.00,,,0.00,Wunderground v.1.15,2013-09-14 23:35:00,
2013-09-14 19:40:00,66.4,59.0,30.00,ESE,106,0.0,0.0,77,0.00,,,0.00,Wunderground v.1.15,2013-09-14 23:40:00,
2013-09-14 19:45:00,66.1,58.7,30.01,ESE,106,0.0,0.0,77,0.00,,,0.00,Wunderground v.1.15,2013-09-14 23:45:00,
2013-09-14 19:50:00,65.9,58.8,30.01,ESE,106,0.0,0.0,78,0.00,,,0.00,Wunderground v.1.15,2013-09-14 23:50:00,
2013-09-14 19:55:00,65.7,58.7,30.01,ESE,106,0.0,0.0,78,0.00,,,0.00,Wunderground v.1.15,2013-09-14 23:55:00,
2013-09-14 20:00:00,65.4,58.7,30.01,ESE,106,0.0,0.0,79,0.00,,,0.00,Wunderground v.1.15,2013-09-15 00:00:00,
2013-09-14 20:05:00,64.9,58.6,30.01,ESE,106,0.0,0.0,80,0.00,,,0.00,Wunderground v.1.15,2013-09-15 00:05:00,
2013-09-14 20:10:00,64.4,58.4,30.01,ESE,106,0.0,0.0,81,0.00,,,0.00,Wunderground v.1.15,2013-09-15 00:10:00,
2013-09-14 20:15:00,64.0,58.1,30.02,ESE,106,0.0,0.0,81,0.00,,,0.00,Wunderground v.1.15,2013-09-15 00:15:00,
2013-09-14 20:20:00,63.5,57.9,30.02,ESE,106,0.0,0.0,82,0.00,,,0.00,Wunderground v.1.15,2013-09-15 00:20:00,
2013-09-14 20:25:00,63.1,58.2,30.02,ESE,106,0.0,0.0,84,0.00,,,0.00,Wunderground v.1.15,2013-09-15 00:25:00,
2013-09-14 20:30:00,62.8,57.9,30.02,ESE,106,0.0,0.0,84,0.00,,,0.00,Wunderground v.1.15,2013-09-15 00:30:00,
2013-09-14 20:35:00,62.4,57.8,30.02,ESE,106,0.0,0.0,85,0.00,,,0.00,Wunderground v.1.15,2013-09-15 00:35:00,
2013-09-14 20:40:00,62.2,58.0,30.02,ESE,106,0.0,0.0,86,0.00,,,0.00,Wunderground v.1.15,2013-09-15 00:40:00,
2013-09-14 20:45:00,62.0,57.8,30.03,ESE,106,0.0,1.0,86,0.00,,,0.00,Wunderground v.1.15,2013-09-15 00:45:00,
2013-09-14 20:50:00,61.8,57.9,30.03,ESE,106,0.0,0.0,87,0.00,,,0.00,Wunderground v.1.15,2013-09-15 00:50:00,
2013-09-14 20:55:00,61.7,57.8,30.03,ESE,106,0.0,0.0,87,0.00,,,0.00,Wunderground v.1.15,2013-09-15 00:55:00,
2013-09-14 21:00:00,61.4,57.5,30.03,ESE,106,0.0,0.0,87,0.00,,,0.00,Wunderground v.1.15,2013-09-15 01:00:00,
2013-09-14 21:05:00,61.2,57.3,30.03,ESE,106,0.0,0.0,87,0.00,,,0.00,Wunderground v.1.15,2013-09-15 01:05:00,
2013-09-14 21:11:00,60.9,57.0,30.03,ESE,106,0.0,0.0,87,0.00,,,0.00,Wunderground v.1.15,2013-09-15 01:11:00,
2013-09-14 21:16:00,60.8,57.2,30.04,ESE,106,0.0,0.0,88,0.00,,,0.00,Wunderground v.1.15,2013-09-15 01:16:00,
2013-09-14 21:21:00,60.7,57.1,30.04,ESE,106,0.0,0.0,88,0.00,,,0.00,Wunderground v.1.15,2013-09-15 01:21:00,
2013-09-14 21:26:00,60.5,56.9,30.04,ESE,106,0.0,0.0,88,0.00,,,0.00,Wunderground v.1.15,2013-09-15 01:26:00,
2013-09-14 21:30:00,59.9,59.3,30.08,North,-999,0.0,0.0,98,0.00,,,-99.99,WeatherLink 6.0.3,2013-09-15 01:30:00,
2013-09-14 21:31:00,60.5,57.2,30.03,ESE,106,0.0,0.0,89,0.00,,,0.00,Wunderground v.1.15,2013-09-15 01:31:00,
2013-09-14 21:36:00,60.4,57.1,30.04,ESE,106,0.0,0.0,89,0.00,,,0.00,Wunderground v.1.15,2013-09-15 01:36:00,
2013-09-14 21:41:00,60.3,57.0,30.04,ESE,106,0.0,0.0,89,0.00,,,0.00,Wunderground v.1.15,2013-09-15 01:41:00,
2013-09-14 21:46:00,60.1,56.8,30.04,ESE,106,0.0,0.0,89,0.00,,,0.00,Wunderground v.1.15,2013-09-15 01:46:00,
2013-09-14 21:51:00,59.9,56.6,30.04,ESE,106,0.0,0.0,89,0.00,,,0.00,Wunderground v.1.15,2013-09-15 01:51:00,
2013-09-14 21:56:00,59.7,56.8,30.04,ESE,106,0.0,0.0,90,0.00,,,0.00,Wunderground v.1.15,2013-09-15 01:56:00,
2013-09-14 22:00:00,60.7,60.1,30.08,North,-999,0.0,0.0,98,0.01,,,-99.99,WeatherLink 6.0.3,2013-09-15 02:00:00,
2013-09-14 22:01:00,59.6,56.7,30.04,ESE,106,0.0,0.0,90,0.00,,,0.00,Wunderground v.1.15,2013-09-15 02:01:00,
2013-09-14 22:06:00,59.3,56.4,30.04,ESE,106,0.0,0.0,90,0.00,,,0.00,Wunderground v.1.15,2013-09-15 02:06:00,
2013-09-14 22:11:00,59.1,56.2,30.04,ESE,106,0.0,0.0,90,0.00,,,0.00,Wunderground v.1.15,2013-09-15 02:11:00,
2013-09-14 22:16:00,59.0,56.4,30.04,ESE,106,0.0,0.0,91,0.00,,,0.00,Wunderground v.1.15,2013-09-15 02:16:00,
2013-09-14 22:21:00,59.0,56.4,30.05,ESE,106,0.0,0.0,91,0.00,,,0.00,Wunderground v.1.15,2013-09-15 02:21:00,
2013-09-14 22:26:00,59.0,56.7,30.04,ESE,106,0.0,0.0,92,0.00,,,0.00,Wunderground v.1.15,2013-09-15 02:26:00,
2013-09-14 22:30:00,61.9,61.3,30.08,ENE,67,0.0,2.0,98,0.01,,,-99.99,WeatherLink 6.0.3,2013-09-15 02:30:00,
2013-09-14 22:31:00,59.0,56.7,30.05,ESE,106,0.0,0.0,92,0.00,,,0.00,Wunderground v.1.15,2013-09-15 02:31:00,
2013-09-14 22:36:00,59.0,56.4,30.05,ESE,106,0.0,0.0,91,0.00,,,0.00,Wunderground v.1.15,2013-09-15 02:36:00,
2013-09-14 22:41:00,59.0,56.4,30.05,ESE,106,0.0,0.0,91,0.00,,,0.00,Wunderground v.1.15,2013-09-15 02:41:00,
2013-09-14 22:46:00,58.7,56.1,30.05,ESE,106,0.0,0.0,91,0.00,,,0.00,Wunderground v.1.15,2013-09-15 02:46:00,
2013-09-14 22:51:00,58.4,56.1,30.05,ESE,106,0.0,0.0,92,0.00,,,0.00,Wunderground v.1.15,2013-09-15 02:51:00,
2013-09-14 22:56:00,58.3,56.0,30.05,ESE,106,0.0,0.0,92,0.00,,,0.00,Wunderground v.1.15,2013-09-15 02:56:00,
2013-09-14 23:00:00,66.0,64.8,30.08,ENE,67,0.0,2.0,96,0.00,,,-99.99,WeatherLink 6.0.3,2013-09-15 03:00:00,
2013-09-14 23:01:00,58.1,56.1,30.05,ESE,106,0.0,0.0,93,0.00,,,0.00,Wunderground v.1.15,2013-09-15 03:01:00,
2013-09-14 23:06:00,58.0,55.7,30.05,ESE,106,0.0,0.0,92,0.00,,,0.00,Wunderground v.1.15,2013-09-15 03:06:00,
2013-09-14 23:11:00,57.9,55.9,30.06,ESE,106,0.0,0.0,93,0.00,,,0.00,Wunderground v.1.15,2013-09-15 03:11:00,
2013-09-14 23:16:00,57.8,55.8,30.06,ESE,106,0.0,0.0,93,0.00,,,0.00,Wunderground v.1.15,2013-09-15 03:16:00,
2013-09-14 23:21:00,57.8,55.8,30.06,ESE,106,0.0,0.0,93,0.00,,,0.00,Wunderground v.1.15,2013-09-15 03:21:00,
2013-09-14 23:26:00,57.8,55.8,30.06,ESE,106,0.0,0.0,93,0.00,,,0.00,Wunderground v.1.15,2013-09-15 03:26:00,
2013-09-14 23:30:00,71.8,67.7,30.08,East,90,0.0,3.0,87,0.00,,,-99.99,WeatherLink 6.0.3,2013-09-15 03:30:00,
2013-09-14 23:31:00,57.6,55.6,30.07,ESE,106,0.0,0.0,93,0.00,,,0.00,Wunderground v.1.15,2013-09-15 03:31:00,
2013-09-14 23:37:00,57.5,55.5,30.06,ESE,106,0.0,0.0,93,0.00,,,0.00,Wunderground v.1.15,2013-09-15 03:37:00,
2013-09-14 23:42:00,57.3,55.3,30.07,ESE,106,0.0,0.0,93,0.00,,,0.00,Wunderground v.1.15,2013-09-15 03:42:00,
2013-09-14 23:47:00,57.2,55.2,30.07,ESE,106,0.0,0.0,93,0.00,,,0.00,Wunderground v.1.15,2013-09-15 03:47:00,
2013-09-14 23:52:00,57.1,55.1,30.07,ESE,106,0.0,0.0,93,0.00,,,0.00,Wunderground v.1.15,2013-09-15 03:52:00,
2013-09-14 23:57:00,57.0,55.3,30.07,ESE,106,0.0,0.0,94,0.00,,,0.00,Wunderground v.1.15,2013-09-15 03:57:00,